Time,TemperatureF,DewpointF,PressureIn,WindDirection,WindDirectionDegrees,WindSpeedMPH,WindSpeedGustMPH,Humidity,HourlyPrecipIn,Conditions,Clouds,dailyrainin,SoftwareType,DateUTC
2013-03-18 00:03:00,33.0,28.0,29.98,NE,56,8.0,14.0,82,0.00,,,0.00,,2013-03-18 04:03:00,
2013-03-18 00:13:00,33.0,28.0,29.98,NE,56,8.0,14.0,82,0.00,,,0.00,,2013-03-18 04:13:00,
2013-03-18 00:23:00,32.0,27.0,29.97,East,80,8.0,17.0,82,0.00,,,0.00,,2013-03-18 04:23:00,
2013-03-18 00:33:00,32.0,27.0,29.97,East,80,8.0,17.0,82,0.00,,,0.00,,2013-03-18 04:33:00,
2013-03-18 00:42:00,32.0,27.0,29.97,East,80,8.0,17.0,82,0.00,,,0.00,,2013-03-18 04:42:00,
2013-03-18 00:52:00,32.0,27.0,29.95,East,98,7.0,17.0,82,0.00,,,0.00,,2013-03-18 04:52:00,
2013-03-18 01:02:00,32.0,27.0,29.95,East,90,6.0,17.0,82,0.00,,,0.00,,2013-03-18 05:02:00,
2013-03-18 01:12:00,32.0,27.0,29.95,East,90,6.0,17.0,82,0.00,,,0.00,,2013-03-18 05:12:00,
2013-03-18 01:22:00,32.0,27.0,29.96,NE,53,8.0,13.0,82,0.00,,,0.00,,2013-03-18 05:22:00,
2013-03-18 01:32:00,32.0,27.0,29.96,ESE,117,6.0,12.0,83,0.00,,,0.00,,2013-03-18 05:32:00,
2013-03-18 01:43:00,32.0,27.0,29.96,ESE,117,6.0,12.0,83,0.00,,,0.00,,2013-03-18 05:43:00,
2013-03-18 01:52:00,32.0,28.0,29.93,ENE,68,5.0,18.0,85,0.00,,,0.00,,2013-03-18 05:52:00,
2013-03-18 02:02:00,32.0,28.0,29.93,ESE,111,6.0,11.0,85,0.00,,,0.00,,2013-03-18 06:02:00,
2013-03-18 02:12:00,32.0,28.0,29.93,ESE,111,6.0,11.0,85,0.00,,,0.00,,2013-03-18 06:12:00,
2013-03-18 02:22:00,31.0,28.0,29.91,ENE,71,5.0,13.0,87,0.00,,,0.00,,2013-03-18 06:22:00,
2013-03-18 02:32:00,31.0,28.0,29.91,ESE,121,7.0,11.0,87,0.00,,,0.00,,2013-03-18 06:32:00,
2013-03-18 02:42:00,31.0,28.0,29.91,ESE,121,7.0,11.0,87,0.00,,,0.00,,2013-03-18 06:42:00,
2013-03-18 02:52:00,31.0,28.0,29.89,ENE,78,6.0,13.0,88,0.00,,,0.00,,2013-03-18 06:52:00,
2013-03-18 03:02:00,31.0,28.0,29.88,NE,34,4.0,12.0,89,0.00,,,0.00,,2013-03-18 07:02:00,
2013-03-18 03:12:00,31.0,28.0,29.88,NE,34,4.0,12.0,89,0.00,,,0.00,,2013-03-18 07:12:00,
2013-03-18 03:22:00,31.0,28.0,29.89,NE,39,7.0,13.0,89,0.00,,,0.00,,2013-03-18 07:22:00,
2013-03-18 03:32:00,31.0,28.0,29.88,East,99,4.0,11.0,89,0.00,,,0.00,,2013-03-18 07:32:00,
2013-03-18 03:42:00,31.0,28.0,29.88,East,99,4.0,11.0,89,0.00,,,0.00,,2013-03-18 07:42:00,
2013-03-18 03:52:00,31.0,28.0,29.87,ESE,105,3.0,11.0,90,0.00,,,0.00,,2013-03-18 07:52:00,
2013-03-18 04:02:00,31.0,28.0,29.87,ENE,71,4.0,12.0,90,0.00,,,0.00,,2013-03-18 08:02:00,
2013-03-18 04:12:00,31.0,28.0,29.87,ENE,71,4.0,12.0,90,0.00,,,0.00,,2013-03-18 08:12:00,
2013-03-18 04:22:00,31.0,28.0,29.84,ENE,57,7.0,14.0,90,0.00,,,0.00,,2013-03-18 08:22:00,
2013-03-18 04:32:00,31.0,29.0,29.83,NE,53,6.0,13.0,91,0.00,,,0.00,,2013-03-18 08:32:00,
2013-03-18 04:43:00,31.0,29.0,29.83,NE,53,6.0,13.0,91,0.00,,,0.00,,2013-03-18 08:43:00,
2013-03-18 04:52:00,31.0,29.0,29.82,East,93,3.0,9.0,91,0.00,,,0.00,,2013-03-18 08:52:00,
2013-03-18 05:02:00,31.0,29.0,29.81,ESE,112,5.0,10.0,92,0.00,,,0.00,,2013-03-18 09:02:00,
2013-03-18 05:12:00,31.0,29.0,29.81,ESE,112,5.0,10.0,92,0.00,,,0.00,,2013-03-18 09:12:00,
2013-03-18 05:22:00,31.0,29.0,29.81,ESE,112,5.0,10.0,92,0.00,,,0.00,,2013-03-18 09:22:00,
2013-03-18 05:33:00,31.0,29.0,29.79,East,80,4.0,11.0,93,0.00,,,0.00,,2013-03-18 09:33:00,
2013-03-18 05:42:00,31.0,29.0,29.79,East,80,4.0,11.0,93,0.00,,,0.00,,2013-03-18 09:42:00,
2013-03-18 05:53:00,31.0,29.0,29.78,ENE,61,4.0,8.0,93,0.00,,,0.00,,2013-03-18 09:53:00,
2013-03-18 06:03:00,31.0,29.0,29.78,ENE,61,4.0,8.0,93,0.00,,,0.00,,2013-03-18 10:03:00,
2013-03-18 06:12:00,31.0,29.0,29.78,ENE,61,4.0,8.0,93,0.00,,,0.00,,2013-03-18 10:12:00,
2013-03-18 06:23:00,32.0,30.0,29.75,East,84,7.0,13.0,93,0.00,,,0.00,,2013-03-18 10:23:00,
2013-03-18 06:33:00,32.0,30.0,29.75,East,96,5.0,14.0,92,0.00,,,0.00,,2013-03-18 10:33:00,
2013-03-18 06:42:00,32.0,30.0,29.75,East,96,5.0,14.0,92,0.00,,,0.00,,2013-03-18 10:42:00,
2013-03-18 06:53:00,32.0,30.0,29.74,ESE,113,5.0,10.0,92,0.00,,,0.00,,2013-03-18 10:53:00,
2013-03-18 07:03:00,32.0,30.0,29.73,ESE,121,5.0,9.0,93,0.00,,,0.00,,2013-03-18 11:03:00,
2013-03-18 07:12:00,32.0,30.0,29.73,ESE,121,5.0,9.0,93,0.00,,,0.00,,2013-03-18 11:12:00,
2013-03-18 07:22:00,32.0,30.0,29.74,East,86,4.0,10.0,93,0.00,,,0.00,,2013-03-18 11:22:00,
2013-03-18 07:32:00,32.0,30.0,29.73,East,82,3.0,8.0,93,0.00,,,0.00,,2013-03-18 11:32:00,
2013-03-18 07:42:00,32.0,30.0,29.73,East,82,3.0,8.0,93,0.00,,,0.00,,2013-03-18 11:42:00,
2013-03-18 07:52:00,32.0,30.0,29.72,ESE,112,5.0,9.0,93,0.00,,,0.00,,2013-03-18 11:52:00,
2013-03-18 08:12:00,32.0,30.0,29.72,ENE,67,4.0,9.0,93,0.00,,,0.00,,2013-03-18 12:12:00,
2013-03-18 08:22:00,32.0,30.0,29.71,NE,43,3.0,7.0,94,0.00,,,0.00,,2013-03-18 12:22:00,
2013-03-18 08:32:00,32.0,30.0,29.71,NE,43,3.0,7.0,94,0.00,,,0.00,,2013-03-18 12:32:00,
2013-03-18 08:42:00,32.0,30.0,29.71,NE,43,3.0,7.0,94,0.00,,,0.00,,2013-03-18 12:42:00,
2013-03-18 08:52:00,32.0,31.0,29.71,SW,219,1.0,6.0,95,0.00,,,0.00,,2013-03-18 12:52:00,
2013-03-18 09:02:00,32.0,31.0,29.70,ENE,64,3.0,7.0,95,0.00,,,0.00,,2013-03-18 13:02:00,
2013-03-18 09:12:00,32.0,31.0,29.70,ENE,64,3.0,7.0,95,0.00,,,0.00,,2013-03-18 13:12:00,
2013-03-18 09:22:00,33.0,32.0,29.69,ENE,77,2.0,8.0,95,0.01,,,0.01,,2013-03-18 13:22:00,
2013-03-18 09:32:00,33.0,32.0,29.68,East,96,4.0,7.0,96,0.01,,,0.01,,2013-03-18 13:32:00,
2013-03-18 09:42:00,33.0,32.0,29.68,East,96,4.0,7.0,96,0.01,,,0.01,,2013-03-18 13:42:00,
2013-03-18 09:52:00,33.0,32.0,29.68,ENE,68,2.0,5.0,96,0.01,,,0.01,,2013-03-18 13:52:00,
2013-03-18 10:02:00,33.0,32.0,29.67,SSE,165,3.0,7.0,96,0.02,,,0.02,,2013-03-18 14:02:00,
2013-03-18 10:12:00,33.0,32.0,29.67,SSE,165,3.0,7.0,96,0.02,,,0.02,,2013-03-18 14:12:00,
2013-03-18 10:22:00,33.0,32.0,29.66,East,89,3.0,5.0,96,0.02,,,0.03,,2013-03-18 14:22:00,
2013-03-18 10:32:00,33.0,32.0,29.67,East,99,3.0,7.0,96,0.03,,,0.04,,2013-03-18 14:32:00,
2013-03-18 10:42:00,33.0,32.0,29.67,East,99,3.0,7.0,96,0.03,,,0.04,,2013-03-18 14:42:00,
2013-03-18 10:52:00,34.0,33.0,29.66,South,170,1.0,4.0,96,0.04,,,0.06,,2013-03-18 14:52:00,
2013-03-18 11:02:00,34.0,33.0,29.66,East,91,2.0,5.0,97,0.04,,,0.06,,2013-03-18 15:02:00,
2013-03-18 11:12:00,34.0,33.0,29.66,East,91,2.0,5.0,97,0.04,,,0.06,,2013-03-18 15:12:00,
2013-03-18 11:22:00,34.0,33.0,29.65,ENE,76,2.0,6.0,97,0.04,,,0.07,,2013-03-18 15:22:00,
2013-03-18 11:33:00,34.0,33.0,29.65,ENE,73,1.0,5.0,97,0.03,,,0.07,,2013-03-18 15:33:00,
2013-03-18 11:42:00,34.0,33.0,29.65,ENE,73,1.0,5.0,97,0.03,,,0.07,,2013-03-18 15:42:00,
2013-03-18 11:52:00,35.0,34.0,29.65,East,84,2.0,5.0,97,0.01,,,0.07,,2013-03-18 15:52:00,
2013-03-18 12:03:00,35.0,34.0,29.65,East,84,2.0,5.0,97,0.01,,,0.07,,2013-03-18 16:03:00,
2013-03-18 12:12:00,35.0,34.0,29.65,East,84,2.0,5.0,97,0.01,,,0.07,,2013-03-18 16:12:00,
2013-03-18 12:22:00,35.0,34.0,29.66,SSE,158,3.0,5.0,97,0.00,,,0.07,,2013-03-18 16:22:00,
2013-03-18 12:32:00,35.0,34.0,29.66,SSE,154,3.0,7.0,97,0.00,,,0.07,,2013-03-18 16:32:00,
2013-03-18 12:42:00,35.0,34.0,29.66,SSE,154,3.0,7.0,97,0.00,,,0.07,,2013-03-18 16:42:00,
2013-03-18 12:52:00,36.0,35.0,29.64,SE,143,3.0,6.0,96,0.00,,,0.07,,2013-03-18 16:52:00,
2013-03-18 13:02:00,36.0,35.0,29.64,SE,143,3.0,6.0,96,0.00,,,0.07,,2013-03-18 17:02:00,
2013-03-18 13:12:00,36.0,35.0,29.64,SE,143,3.0,6.0,96,0.00,,,0.07,,2013-03-18 17:12:00,
2013-03-18 13:22:00,37.0,36.0,29.64,SW,222,2.0,5.0,96,0.00,,,0.07,,2013-03-18 17:22:00,
2013-03-18 13:32:00,37.0,36.0,29.64,SW,222,2.0,5.0,96,0.00,,,0.07,,2013-03-18 17:32:00,
2013-03-18 13:43:00,37.0,36.0,29.64,SW,222,2.0,5.0,96,0.00,,,0.07,,2013-03-18 17:43:00,
2013-03-18 13:52:00,38.0,37.0,29.62,WSW,257,2.0,5.0,97,0.00,,,0.07,,2013-03-18 17:52:00,
2013-03-18 14:02:00,38.0,37.0,29.62,SSW,210,3.0,5.0,97,0.00,,,0.07,,2013-03-18 18:02:00,
2013-03-18 14:12:00,38.0,37.0,29.62,SSW,210,3.0,5.0,97,0.00,,,0.07,,2013-03-18 18:12:00,
2013-03-18 14:22:00,38.0,37.0,29.60,WSW,238,3.0,6.0,96,0.00,,,0.07,,2013-03-18 18:22:00,
2013-03-18 14:32:00,38.0,37.0,29.60,WSW,238,3.0,6.0,96,0.00,,,0.07,,2013-03-18 18:32:00,
2013-03-18 14:42:00,38.0,37.0,29.60,WSW,238,3.0,6.0,96,0.00,,,0.07,,2013-03-18 18:42:00,
2013-03-18 14:52:00,39.0,38.0,29.64,WSW,246,6.0,10.0,96,0.00,,,0.07,,2013-03-18 18:52:00,
2013-03-18 15:02:00,39.0,38.0,29.64,NNW,347,4.0,10.0,96,0.00,,,0.07,,2013-03-18 19:02:00,
2013-03-18 15:12:00,39.0,38.0,29.64,NNW,347,4.0,10.0,96,0.00,,,0.07,,2013-03-18 19:12:00,
2013-03-18 15:22:00,38.0,37.0,29.63,WSW,250,7.0,15.0,96,0.00,,,0.07,,2013-03-18 19:22:00,
2013-03-18 15:32:00,38.0,37.0,29.63,West,271,3.0,16.0,95,0.00,,,0.07,,2013-03-18 19:32:00,
2013-03-18 15:42:00,38.0,37.0,29.63,West,271,3.0,16.0,95,0.00,,,0.07,,2013-03-18 19:42:00,
2013-03-18 15:52:00,38.0,37.0,29.63,WNW,293,6.0,15.0,95,0.00,,,0.07,,2013-03-18 19:52:00,
2013-03-18 16:12:00,38.0,36.0,29.63,WNW,283,7.0,15.0,93,0.00,,,0.07,,2013-03-18 20:12:00,
2013-03-18 16:22:00,38.0,36.0,29.64,WNW,298,7.0,15.0,92,0.00,,,0.07,,2013-03-18 20:22:00,
2013-03-18 16:33:00,38.0,36.0,29.65,SW,224,7.0,13.0,92,0.00,,,0.07,,2013-03-18 20:33:00,
2013-03-18 16:42:00,38.0,36.0,29.65,SW,224,7.0,13.0,92,0.00,,,0.07,,2013-03-18 20:42:00,
2013-03-18 16:52:00,38.0,35.0,29.65,WNW,285,6.0,15.0,90,0.00,,,0.07,,2013-03-18 20:52:00,
2013-03-18 17:02:00,38.0,35.0,29.66,West,270,8.0,20.0,89,0.00,,,0.07,,2013-03-18 21:02:00,
2013-03-18 17:12:00,38.0,35.0,29.66,West,270,8.0,20.0,89,0.00,,,0.07,,2013-03-18 21:12:00,
2013-03-18 17:22:00,37.0,34.0,29.67,WNW,294,6.0,15.0,88,0.00,,,0.07,,2013-03-18 21:22:00,
2013-03-18 17:32:00,37.0,34.0,29.68,NW,318,8.0,17.0,88,0.00,,,0.07,,2013-03-18 21:32:00,
2013-03-18 17:42:00,37.0,34.0,29.68,NW,318,8.0,17.0,88,0.00,,,0.07,,2013-03-18 21:42:00,
2013-03-18 17:53:00,37.0,34.0,29.68,WNW,301,7.0,16.0,89,0.00,,,0.07,,2013-03-18 21:53:00,
2013-03-18 18:03:00,37.0,34.0,29.68,WNW,282,4.0,11.0,90,0.00,,,0.07,,2013-03-18 22:03:00,
2013-03-18 18:13:00,37.0,34.0,29.68,WNW,282,4.0,11.0,90,0.00,,,0.07,,2013-03-18 22:13:00,
2013-03-18 18:23:00,37.0,35.0,29.70,WSW,240,4.0,10.0,91,0.00,,,0.07,,2013-03-18 22:23:00,
2013-03-18 18:33:00,37.0,35.0,29.71,WNW,284,6.0,16.0,91,0.00,,,0.07,,2013-03-18 22:33:00,
2013-03-18 18:42:00,37.0,35.0,29.71,WNW,284,6.0,16.0,91,0.00,,,0.07,,2013-03-18 22:42:00,
2013-03-18 18:53:00,37.0,35.0,29.71,WSW,257,3.0,9.0,91,0.00,,,0.07,,2013-03-18 22:53:00,
2013-03-18 19:02:00,37.0,35.0,29.71,West,274,4.0,11.0,91,0.00,,,0.07,,2013-03-18 23:02:00,
2013-03-18 19:12:00,37.0,35.0,29.71,West,274,4.0,11.0,91,0.00,,,0.07,,2013-03-18 23:12:00,
2013-03-18 19:22:00,37.0,35.0,29.71,West,274,4.0,11.0,91,0.00,,,0.07,,2013-03-18 23:22:00,
2013-03-18 19:32:00,38.0,35.0,29.72,West,277,4.0,12.0,89,0.00,,,0.07,,2013-03-18 23:32:00,
2013-03-18 19:42:00,38.0,35.0,29.72,West,277,4.0,12.0,89,0.00,,,0.07,,2013-03-18 23:42:00,
2013-03-18 19:53:00,38.0,35.0,29.73,WNW,285,7.0,14.0,88,0.00,,,0.07,,2013-03-18 23:53:00,
2013-03-18 20:02:00,38.0,35.0,29.74,WNW,297,6.0,12.0,88,0.00,,,0.07,,2013-03-19 00:02:00,
2013-03-18 20:12:00,38.0,35.0,29.74,WNW,297,6.0,12.0,88,0.00,,,0.07,,2013-03-19 00:12:00,
2013-03-18 20:22:00,38.0,34.0,29.75,West,264,6.0,13.0,87,0.00,,,0.07,,2013-03-19 00:22:00,
2013-03-18 20:32:00,38.0,34.0,29.75,West,264,6.0,13.0,87,0.00,,,0.07,,2013-03-19 00:32:00,
2013-03-18 20:42:00,38.0,34.0,29.75,West,264,6.0,13.0,87,0.00,,,0.07,,2013-03-19 00:42:00,
2013-03-18 20:52:00,38.0,34.0,29.77,WNW,299,5.0,14.0,86,0.00,,,0.07,,2013-03-19 00:52:00,
2013-03-18 21:02:00,38.0,34.0,29.77,WNW,293,5.0,10.0,86,0.00,,,0.07,,2013-03-19 01:02:00,
2013-03-18 21:12:00,38.0,34.0,29.77,WNW,293,5.0,10.0,86,0.00,,,0.07,,2013-03-19 01:12:00,
2013-03-18 21:22:00,38.0,34.0,29.77,WNW,284,4.0,10.0,86,0.00,,,0.07,,2013-03-19 01:22:00,
2013-03-18 21:32:00,38.0,34.0,29.77,WNW,297,3.0,8.0,86,0.00,,,0.07,,2013-03-19 01:32:00,
2013-03-18 21:42:00,38.0,34.0,29.77,WNW,297,3.0,8.0,86,0.00,,,0.07,,2013-03-19 01:42:00,
2013-03-18 21:52:00,38.0,34.0,29.78,NW,321,7.0,12.0,85,0.00,,,0.07,,2013-03-19 01:52:00,
2013-03-18 22:02:00,38.0,34.0,29.78,NW,321,7.0,12.0,85,0.00,,,0.07,,2013-03-19 02:02:00,
2013-03-18 22:12:00,38.0,34.0,29.78,NW,321,7.0,12.0,85,0.00,,,0.07,,2013-03-19 02:12:00,
2013-03-18 22:22:00,36.0,31.0,29.81,NW,306,7.0,16.0,81,0.00,,,0.07,,2013-03-19 02:22:00,
2013-03-18 22:32:00,35.0,29.0,29.82,NW,326,9.0,20.0,79,0.00,,,0.07,,2013-03-19 02:32:00,
2013-03-18 22:43:00,35.0,29.0,29.82,NW,326,9.0,20.0,79,0.00,,,0.07,,2013-03-19 02:43:00,
2013-03-18 22:52:00,33.0,27.0,29.83,North,352,7.0,20.0,79,0.00,,,0.07,,2013-03-19 02:52:00,
2013-03-18 23:02:00,32.0,26.0,29.83,NW,324,10.0,19.0,77,0.00,,,0.07,,2013-03-19 03:02:00,
2013-03-18 23:12:00,32.0,26.0,29.83,NW,324,10.0,19.0,77,0.00,,,0.07,,2013-03-19 03:12:00,
2013-03-18 23:22:00,31.0,25.0,29.84,NW,306,8.0,21.0,79,0.00,,,0.07,,2013-03-19 03:22:00,
2013-03-18 23:32:00,31.0,25.0,29.84,WNW,292,9.0,16.0,79,0.00,,,0.07,,2013-03-19 03:32:00,
2013-03-18 23:43:00,31.0,25.0,29.84,WNW,292,9.0,16.0,79,0.00,,,0.07,,2013-03-19 03:43:00,
2013-03-18 23:54:00,30.0,23.0,29.85,WSW,255,10.0,21.0,76,0.00,,,0.07,,2013-03-19 03:54:00,